Probability
0 0 0 0 0 0 0 0 0 0 0 0 1 2 1 0 0 0 0 0 0 0 0 0 0 0 0 0 0 0 0 0 0 0 0 0 0 0
0 0 0 0 0 0 0 0 0 0 0 0 1 2 2 1 0 0 0 0 0 0 0 0 0 0 0 0 0 0 0 0 0 0 0 0 0 0
0 0 0 0 0 0 0 0 0 0 0 0 1 2 2 1 0 0 0 0 0 0 0 0 0 0 0 0 0 0 0 0 0 0 0 0 0 0
0 0 0 0 0 0 0 0 0 0 0 0 0 1 2 1 0 0 0 0 0 0 0 0 0 0 0 0 0 0 0 0 0 0 0 0 0 0
0 0 0 0 0 0 0 0 0 0 0 0 0 1 1 0 0 0 0 0 0 0 0 0 0 0 0 0 0 0 0 0 0 0 0 1 0 0
0 0 0 0 0 0 0 0 0 0 0 0 0 0 0 0 0 0 0 0 0 0 0 0 0 0 0 0 0 0 0 0 0 0 0 0 0 0
0 0 0 0 0 0 0 0 0 0 0 0 0 0 0 0 0 0 0 0 0 0 0 0 0 0 0 0 0 0 0 0 0 0 0 0 0 0
0 0 0 0 0 0 0 0 0 0 0 0 0 0 0 0 0 0 0 0 0 0 0 0 0 0 0 0 0 0 0 0 0 0 0 0 0 0
0 0 0 0 0 0 0 0 0 0 0 0 0 0 0 0 0 0 0 0 0 0 0 0 0 0 0 0 0 0 0 0 0 0 0 0 0 0
0 0 0 0 0 0 0 0 0 0 0 0 0 0 0 0 0 0 0 0 0 0 0 0 0 0 0 0 0 0 0 0 0 0 0 0 0 0
0 0 0 0 0 0 0 0 0 0 0 0 0 0 0 0 0 0 0 0 0 0 0 0 0 0 0 0 0 0 0 0 0 0 0 0 0 0
0 0 0 0 0 0 0 0 0 0 0 0 0 0 0 0 0 0 0 0 0 0 0 0 0 0 0 0 0 0 0 0 0 0 0 0 0 0
0 0 0 0 0 0 0 0 0 0 0 0 0 0 0 0 0 0 0 0 0 0 0 0 0 0 0 0 0 0 0 0 0 0 0 0 0 0
0 0 0 0 0 0 0 0 0 0 0 0 0 0 0 0 0 0 0 0 0 0 0 0 0 0 0 0 0 0 0 0 0 0 0 0 0 0
0 0 0 0 0 0 0 0 0 0 0 0 0 0 0 0 0 0 0 0 0 0 0 0 0 0 0 0 0 0 0 0 0 0 0 0 0 0
0 0 0 0 0 0 0 0 0 0 0 0 0 0 0 0 0 0 0 0 0 0 0 0 0 0 0 0 0 0 0 0 0 0 0 0 0 0
0 0 0 0 0 0 0 0 0 0 0 0 0 0 0 0 0 0 0 0 0 0 0 0 0 0 0 0 0 0 0 0 0 0 0 0 0 0
0 0 0 0 0 0 0 0 0 0 0 0 0 0 0 0 0 0 0 0 0 0 0 0 0 0 0 0 0 0 0 0 0 0 0 0 0 0
0 0 0 0 0 0 0 0 0 0 0 0 0 0 0 0 0 0 0 0 0 0 0 0 0 0 0 0 0 0 0 0 0 0 0 0 0 0
0 0 0 0 0 0 0 0 0 0 0 0 0 0 0 0 0 0 0 0 0 0 0 0 0 0 0 0 0 0 0 0 0 0 0 0 0 0
0 0 0 0 0 0 0 0 0 0 0 0 0 0 0 0 0 0 0 0 0 0 0 0 0 0 0 0 0 0 0 0 0 0 0 0 0 0
0 0 0 0 0 0 0 0 0 0 0 0 0 0 0 0 0 0 0 0 0 0 0 0 0 0 0 0 0 0 0 0 0 0 0 0 0 0
0 0 0 0 0 0 0 0 0 0 0 0 0 0 0 0 0 0 0 0 0 0 0 0 0 0 0 0 0 0 0 0 0 0 0 0 0 0
Wind_Speed
2 2 1 1 1 1 2 3 3 1 2 2 2 2 2 2 4 3 3 6 6 7 7 8 7 7 7 6 6 6 6 6 6 6 6 7 8 8
1 2 1 1 1 1 1 2 2 3 2 2 2 2 2 2 3 3 4 5 6 6 7 7 7 7 6 7 7 6 6 6 6 6 6 6 7 7
1 2 1 1 1 1 1 1 1 2 2 2 2 1 1 1 2 2 2 3 4 7 7 7 7 7 7 7 7 7 7 7 7 7 7 7 7 7
2 2 2 1 1 1 1 1 1 2 3 2 2 1 2 2 2 2 2 2 3 5 6 6 6 6 7 7 7 8 8 8 8 8 8 8 8 8
3 3 3 2 1 1 1 1 1 1 1 2 2 1 1 1 1 2 2 2 2 3 4 5 6 7 7 7 7 7 7 7 8 8 9 8 8 8
3 3 3 3 3 2 2 2 2 1 1 1 2 2 2 1 0 1 2 2 2 2 2 2 3 5 6 7 7 8 8 8 8 8 9 9 9 9
2 3 3 3 4 3 2 3 2 2 1 1 2 1 1 1 1 1 2 2 3 1 1 2 1 2 3 5 7 8 9 9 9 9 8 8 9 9
3 2 3 3 3 4 4 4 5 4 3 2 2 3 3 3 2 2 1 0 2 2 0 2 1 2 3 3 5 7 8 8 8 9 8 8 8 8
3 3 3 3 3 2 3 3 3 4 6 5 4 4 4 4 3 2 2 2 3 3 0 2 2 2 3 3 5 6 7 7 8 8 8 8 8 8
4 4 4 3 3 3 2 1 2 3 4 4 5 5 5 4 4 4 4 2 2 2 2 2 2 2 3 3 5 5 5 5 6 7 7 7 7 7
3 3 4 4 5 4 2 2 2 3 4 4 5 6 6 6 4 2 1 1 2 3 2 2 2 2 2 2 3 4 5 5 5 6 6 6 6 5
2 2 4 5 5 4 3 3 3 4 3 3 3 3 3 4 5 5 4 3 2 3 2 2 1 0 2 2 2 2 2 4 5 6 6 6 5 3
2 2 2 4 5 4 4 4 6 4 2 2 2 2 2 2 3 3 4 4 4 4 3 2 1 1 2 2 2 2 1 2 2 3 5 6 6 4
3 2 3 4 5 4 4 5 5 2 1 1 1 2 2 3 3 3 4 4 4 5 3 3 2 2 2 1 3 2 2 2 2 2 2 4 5 6
3 4 4 5 4 4 5 5 3 1 1 1 3 3 3 3 2 2 1 1 2 3 3 3 3 2 2 2 2 2 2 2 2 2 2 2 2 2
2 3 4 4 3 3 3 2 2 3 3 3 3 3 2 1 1 1 1 1 0 2 2 1 2 3 2 2 2 2 2 2 2 2 2 2 2 2
1 0 1 1 1 1 1 2 2 2 2 2 2 2 2 1 2 1 1 1 1 2 2 2 1 1 2 2 2 3 2 2 2 2 1 2 2 2
3 1 1 2 2 2 2 2 2 2 3 2 2 2 2 2 1 1 1 1 2 2 2 2 1 1 2 2 2 3 2 2 2 1 1 1 3 3
2 2 2 3 3 2 2 2 2 2 2 2 2 2 2 2 2 1 1 1 1 2 2 2 1 1 1 3 4 2 2 2 1 1 1 2 3 3
2 2 3 3 3 3 3 2 2 2 1 1 2 2 2 2 2 2 1 2 2 2 1 1 1 2 4 4 3 3 2 2 1 2 2 1 2 3
3 3 3 3 3 3 3 2 2 2 2 2 2 2 2 2 2 2 2 2 2 1 2 3 4 3 1 1 1 3 3 3 2 2 2 1 2 2
3 3 3 3 3 2 2 2 2 2 1 1 2 2 2 2 2 2 2 2 2 2 3 3 2 0 1 1 2 3 4 4 3 4 2 3 3 3
4 3 3 2 2 2 2 2 2 2 2 2 2 2 2 2 2 2 2 2 2 2 2 2 1 0 1 2 2 3 4 3 2 2 3 5 4 5
Wind_Direction
171 161 152 171 155 152 146 148 150 174 262 274 273 261 243 230 228 217 223 229 230 229 230 233 236 237 240 239 237 238 242 248 253 255 259 255 254 253
162 148 152 173 156 151 159 151 151 161 215 253 246 251 252 254 240 224 231 235 235 235 233 234 235 234 237 238 237 238 242 245 248 254 258 258 259 257
174 159 174 160 148 163 153 151 160 152 191 266 263 259 266 273 292 271 248 236 242 245 243 239 239 238 238 239 238 239 242 244 247 252 255 258 261 262
190 169 185 163 154 175 163 175 190 184 176 233 268 262 253 243 263 270 273 252 249 251 246 238 237 238 238 239 238 239 240 242 246 250 254 254 257 260
189 183 192 165 182 203 193 203 215 207 177 196 247 241 251 255 269 292 294 298 276 264 250 246 246 241 239 239 241 243 244 245 248 250 252 254 257 261
189 190 189 185 194 205 209 223 215 217 208 201 236 252 252 260 163 265 299 304 292 297 294 273 258 247 247 246 246 245 244 244 246 249 251 251 253 256
212 215 210 207 209 212 212 217 205 207 205 211 230 246 257 255 240 240 254 286 289 277 302 297 279 270 261 255 251 249 247 246 248 250 252 253 252 253
215 236 234 221 234 244 245 235 210 198 205 209 219 219 240 233 234 221 216 275 291 285 264 288 270 265 261 247 254 251 249 250 253 253 252 253 255 255
211 221 236 225 218 239 264 269 253 232 209 195 207 223 224 220 208 228 221 213 238 246 179 280 282 274 270 270 263 251 249 251 255 256 253 253 254 256
222 218 218 225 221 216 228 246 266 259 240 216 214 227 226 221 206 204 210 233 271 259 183 235 265 265 277 280 270 256 258 263 261 258 256 257 256 256
234 223 209 219 230 214 193 228 276 287 279 251 238 239 237 233 212 172 180 171 271 274 217 198 249 277 285 279 274 263 263 265 265 264 262 261 257 255
248 234 221 219 225 211 197 207 241 261 284 308 294 282 253 240 216 193 190 187 213 262 247 188 230 234 295 281 277 276 267 265 265 262 262 260 255 242
237 244 243 226 228 225 211 213 229 239 255 263 277 284 278 255 239 218 201 190 196 232 230 175 204 199 211 279 295 272 252 260 267 268 261 259 255 232
228 237 235 230 236 237 229 234 236 232 226 261 271 269 261 258 254 239 222 216 213 222 225 179 192 196 198 252 279 294 288 257 238 253 253 260 260 260
236 246 254 246 251 252 244 239 228 197 196 227 246 253 246 244 252 262 249 233 253 255 242 206 194 196 188 212 245 268 286 282 248 245 253 248 249 255
255 271 267 252 251 252 262 253 217 203 200 222 240 257 264 252 241 217 216 208 283 301 302 252 203 186 206 227 218 254 252 253 265 248 245 264 266 244
190 7 4 332 289 279 270 258 229 212 221 230 230 250 251 247 256 237 199 168 187 248 290 308 280 200 199 197 238 261 263 267 255 241 228 267 272 258
144 183 240 244 244 246 246 255 244 230 227 223 220 220 225 229 250 262 203 183 212 236 248 261 291 6 2 311 234 242 258 260 265 245 204 230 287 288
165 219 231 237 239 234 230 229 237 237 220 212 217 220 215 212 210 227 227 211 233 242 249 239 200 159 216 284 293 249 225 258 276 281 239 216 249 274
211 228 236 234 226 221 223 227 236 236 214 218 220 223 214 203 211 224 224 215 232 251 273 272 226 204 205 227 257 289 271 230 228 251 264 265 273 291
224 228 230 227 226 223 224 220 215 216 212 207 215 219 214 201 216 220 213 219 211 226 249 260 256 241 206 106 329 300 300 287 235 222 227 241 287 299
230 228 232 225 221 222 222 208 199 206 205 211 222 223 218 203 210 218 212 206 215 221 237 260 284 136 139 184 240 267 288 309 320 318 284 214 200 222
227 225 223 222 217 205 200 197 196 202 200 205 220 226 219 212 212 201 203 208 211 228 247 265 280 249 229 221 237 261 277 288 301 322 312 300 272 257